Content
SEND FEEDBACK

Daily
Averages
Monthly
Summary
United States of America

HOODSPORT, WASHINGTON


Home > North America > United States > Washington
Elevation: 717 feet     Latitude: 47 25N     Longitude: 123 13W

WEATHER
 
SELECT A DAY
Number of Records: 218,399;   Date Range: 5/22/98 - 7/22/14
 
SHARE

PRINT THIS DATA

[ ← Previous Day ]
WEATHER ALMANAC - FEBRUARY 13, 2013
[ Next Day → ]
[ °C ]   °F
Weather ElementAverageHighLow
Temperature43.4 °F48 °F (11:53 am)37.4 °F (9:24 pm)
Dewpoint40.8 °F46.4 °F (12:39 am)37.4 °F (9:24 pm)
Humidity90.8 %100 % (12:39 am)74 % (1:53 pm)
Barometer30.40 in30.50 in (11:53 pm)30.32 in (12:39 am)
Wind Speed8.9 mph17.3 mph (5:53 am)
Wind Gust24.2 mph (12:53 pm)
Weather ElementAverage
Visibility9.6 mi
Wind DirectionSW (224.5 °)

Weather ElementTotal
Precipitation0.02 in
Heating Degree Days22.3 (Base 65)
Averaged from 33 records on February 13, 2013
WEATHER CONDITIONS BREAKOUT
WIND DIRECTION BREAKOUT
WEATHER BY HOUR - FEBRUARY 13, 2013
[ °C ]   °F
Local TimeTemperatureDewpointHumidityBarometerVisibilityWind DirectionWind SpeedGust SpeedPrecipitationEventsConditions
12:39 AM46.4 °F46.4 °F100 %30.32 in9.0 miSW (230°)11.5 mph0.00 inRainLight Rain
12:53 AM46.9 °F45.0 °F93 %30.33 in10.0 miSW (230°)11.5 mph0.02 inRainLight Rain
1:00 AM46.4 °F44.6 °F93 %30.32 in10.0 miSW (230°)10.4 mph0.00 inOvercast
1:06 AM46.4 °F44.6 °F93 %30.33 in10.0 miSW (230°)9.2 mph0.00 inOvercast
1:19 AM44.6 °F44.6 °F100 %30.33 in10.0 miSW (230°)11.5 mph0.00 inMostly Cloudy
1:53 AM44.1 °F43.0 °F96 %30.33 in10.0 miSW (230°)12.7 mph0.00 inScattered Clouds
2:42 AM42.8 °F42.8 °F100 %30.34 in10.0 miSW (230°)12.7 mphPartly Cloudy
2:53 AM44.1 °F41.0 °F89 %30.35 in10.0 miWSW (240°)9.2 mphPartly Cloudy
3:01 AM42.8 °F42.8 °F100 %30.34 in10.0 miSW (220°)10.4 mphMostly Cloudy
3:53 AM42.1 °F41.0 °F96 %30.36 in10.0 miSW (220°)9.2 mphPartly Cloudy
4:53 AM43.0 °F39.9 °F89 %30.37 in10.0 miWSW (250°)9.2 mphClear
5:53 AM42.1 °F39.9 °F92 %30.36 in10.0 miWSW (240°)17.3 mphClear
6:53 AM42.1 °F39.9 °F92 %30.38 in10.0 miWSW (240°)9.2 mphPartly Cloudy
7:53 AM42.1 °F39.9 °F92 %30.39 in10.0 miWSW (250°)11.5 mphOvercast
8:53 AM43.0 °F39.9 °F89 %30.41 in10.0 miWSW (250°)8.1 mphOvercast
9:53 AM44.1 °F39.9 °F85 %30.43 in10.0 miWSW (250°)5.8 mphOvercast
10:53 AM46.0 °F41.0 °F83 %30.43 in10.0 miSW (230°)11.5 mphMostly Cloudy
11:53 AM48.0 °F41.0 °F77 %30.43 in10.0 miWSW (240°)10.4 mph20.7 mphMostly Cloudy
12:53 PM46.9 °F39.9 °F77 %30.43 in10.0 miWSW (240°)16.1 mph24.2 mphOvercast
1:53 PM48.0 °F39.9 °F74 %30.42 in10.0 miWSW (250°)11.5 mphOvercast
2:53 PM46.9 °F42.1 °F83 %30.41 in10.0 miSW (230°)12.7 mphOvercast
3:53 PM46.9 °F39.9 °F77 %30.42 in10.0 miWSW (240°)10.4 mphOvercast
4:53 PM46.9 °F39.9 °F77 %30.43 in10.0 miWSW (240°)8.1 mphOvercast
5:53 PM44.1 °F39.0 °F82 %30.44 in10.0 miWSW (240°)6.9 mphMostly Cloudy
6:53 PM42.1 °F39.0 °F89 %30.44 in10.0 miWSW (250°)5.8 mphClear
7:53 PM39.9 °F39.0 °F97 %30.47 in10.0 miCalmPartly Cloudy
8:53 PM41.0 °F39.9 °F96 %30.47 in10.0 miWest (260°)4.6 mphMostly Cloudy
9:24 PM37.4 °F37.4 °F100 %30.46 in10.0 miWSW (240°)5.8 mphMostly Cloudy
9:53 PM39.0 °F37.9 °F96 %30.48 in10.0 miWSW (250°)5.8 mphPartly Cloudy
10:05 PM39.2 °F37.4 °F93 %30.47 in10.0 miCalmMostly Cloudy
10:15 PM39.2 °F39.2 °F100 %30.47 in10.0 miWSW (240°)3.5 mphOvercast
10:53 PM39.0 °F39.0 °F100 %30.49 in5.0 miWSW (250°)5.8 mphOvercast
11:53 PM39.9 °F39.0 °F97 %30.50 in4.0 miWSW (240°)5.8 mphOvercast
Hourly data recorded from KSHN, located miles away from Hoodsport, Washington







STORIES FROM OUR PARTNERS